Location: Recife
(8.0585°S, 34.8848°W)
Time: 13:38:59
(UTC-03:00)

Tiros 1 despin weight - Pass Details

Date: 14 April 2026
Orbit: 555 x 591 km, 48.2° (Epoch: 14 May)

Event Time Altitude Azimuth Distance (km) Brightness Sun altitude
Rises 11:26:35 0° 187° (S) 2,736 ? 72.3°
Reaches altitude 10° 11:30:35 10° 150° (SSE) 1,835 ? 72.2°
Maximum altitude 11:31:41 11° 134° (SE) 1,779 ? 72.1°
Drops below altitude 10° 11:32:46 10° 119° (ESE) 1,833 ? 72.1°
Sets 11:36:45 0° 82° (E) 2,725 ? 71.9°
